Tracking 35274 objects as of 10-Sep-2026
HD Live streaming from Space Station
objects crossing your sky now

COSMOS 1657 DEB


COSMOS 1657 DEB is no longer on orbit


NORAD ID: 15852
Int'l Code: 1985-044G
Launch date: June 7, 1985
Source: Commonwealth of Independent States (former USSR) (CIS)
Launch site: PLESETSK MISSILE AND SPACE COMPLEX (PKMTR)
Decay date: 1985-08-18

Note: This is SATELLITE DEBRIS
Your satellite tracking list
Your tracking list is empty




NASA's NSSDC Master Catalog

Two Line Element Set (TLE):
1 15852U 85044  G 85230.00069060  .12363598 +97274-5 +16274-3 0  9995
2 15852 082.2351 313.8321 0011557 259.2394 100.8539 16.48831745011542
Source of the keplerian elements: AFSPC